Terminal Aerodrome Forecast
Issued by NWS

Home | Current Version | Previous Version | Text Only | Print | Product List | Glossary On
Versions: 1 2 3 4 5 6 7 8 9 10 11 12 13 14 15 16 17 18 19 20 21 22 23 24
000
FTUS43 KLSX 031100
TAFUIN
TAF
KUIN 031125Z 0312/0412 16011KT 4SM -FZDZ BR OVC015
      TEMPO 0312/0314 OVC009
     FM031400 17012KT 5SM BR OVC006
     FM031700 22015G23KT P6SM OVC010
     FM032100 28012KT P6SM OVC015
     FM040300 34015G22KT P6SM BKN150=

USA.gov is the U.S. government's official web portal to all federal, state and local government web resources and services.